Cosmos 2366 rocket - Orbit

View from above orbital plane
View from above orbital plane
View from above satellite
View from above satellite

Ground track
Ground track

The orbit data is extracted from the following two-line orbital elements,

1 25893U 99045B   13143.19771708  .00000112  00000-0  99362-4 0  7700
2 25893 082.9285 050.4745 0027286 288.4445 229.7833 13.76381735690225
Epoch (UTC): 23 May 2013 04:44:42
Eccentricity: 0.0027286
inclination: 82.9285°
perigee height: 956 km
apogee height: 997 km
right ascension of ascending node: 50.4745°
argument of perigee: 288.4445°
revolutions per day: 13.76381735
mean anomaly at epoch: 229.7833°
orbit number at epoch: 69022

The dashed part of the orbit path shows where the satellite is in the earth's shadow,  

Developed and maintained by Chris Peat, Heavens-Above GmbH. Please read the updated FAQ before sending e-mail. Imprint. DLR